Station 45136 - Slate Island Image indicating link to RSS feed of recent meteorological observations for station 45136

Data from this station are not quality controlled by NDBC


Conditions at 45136 as of
(2:00 pm EDT)
1800 GMT on 06/23/2024:
     

Click on the graph icon in the table below to see a time series plot of the last five days of that observation.

5-day plot - Wind Direction Wind Direction (WDIR):WNW ( 300 deg true )
5-day plot - Wind Speed Wind Speed (WSPD):5.0 m/s
5-day plot - Wind Gust Wind Gust (GST):5.0 m/s
5-day plot - Wave Height Wave Height (WVHT): 0.1 m
5-day plot - Dominant Wave Period Dominant Wave Period (DPD): 3 sec
5-day plot - Atmospheric Pressure Atmospheric Pressure (PRES):1006.9 mb
5-day plot - Pressure Tendency Pressure Tendency (PTDY): +0.8 mb ( Rising )
5-day plot - Air Temperature Air Temperature (ATMP): 10.6 °C
5-day plot - Water Temperature Water Temperature (WTMP): 7.1 °C
5-day plot - Wind Chill Wind Chill (CHILL): 8.3 °C
5-day plot -  Wind Speed, Wind Gust and Atmospheric Pressure Combined plot of Wind Speed, Gust, and Air Pressure

Data from this station are not quality controlled by NDBC

Previous observations
TIME
(EDT)
5-day plot - Wind Direction
WDIR
 
5-day plot - Wind Speed
WSPD
m/s
5-day plot - Wind Gust
GST
m/s
5-day plot - Wave Height
WVHT
m
5-day plot - Dominant Wave Period
DPD
sec
5-day plot - Average Wave Period
APD
sec
5-day plot - Mean Wave Direction
MWD
 
5-day plot - Atmospheric Pressure
PRES
mb
5-day plot - Pressure Tendency
PTDY
mb
5-day plot - Air Temperature
ATMP
°C
5-day plot - Water Temperature
WTMP
°C
5-day plot - Dew Point
DEWP
°C
5-day plot - Salinity
SAL
psu
5-day plot - Visibility
VIS
km
5-day plot - Tide (above MLLW)
TIDE
m
2024-06-23 01:00 pmWNW 4.0 4.0 0.1 2--1006.7 +0.5 10.4 7.1----
2024-06-23 12:00 pm NW 4.0 5.0 0.1 2--1006.2 +0.3 11.0 7.0----
2024-06-23 11:00 am NW 4.0 5.0 0.1 2--1006.0 +0.1 10.7 7.0----
2024-06-23 10:00 am NW 3.0 3.0 0.1 2--1006.1 +0.3 14.1 6.9----
2024-06-23 09:00 amNNE 4.0 4.0 0.1 2--1005.9 +0.5 12.3 6.8----
2024-06-23 08:00 am N 3.0 3.0 0.1 2--1005.9 +0.5 12.3 7.0----
2024-06-23 07:00 amWNW 2.0 3.0- 2--1005.9 -0.3 10.9 6.9----
2024-06-23 06:00 amENE 1.0 2.0- 2--1005.4 -1.2 10.8 6.8----
2024-06-23 05:00 am NW 2.0 3.0- 3--1005.5 -1.8 9.5 6.7----
2024-06-23 04:00 amWNW 2.0 3.0- 3--1006.2 -1.5 9.1 6.6----
2024-06-23 03:00 am SW 2.0 2.0- 2--1006.7 -1.7 10.1 6.7----
2024-06-23 02:00 am W 3.0 3.0- 3--1007.3 -1.4 10.3 6.6----
2024-06-23 01:00 am W 2.0 3.0 0.0 3--1007.8 -1.5 10.5 6.7----
2024-06-23 12:00 am NW 3.0 4.0 0.0 3--1008.4 -1.1 11.9 6.7----
2024-06-22 11:00 pmNNW 3.0 4.0 0.0 3--1008.8 -1.4 11.3 7.0----
2024-06-22 10:00 pmNNW 3.0 4.0 0.0 3--1009.3 -1.6 10.6 7.2----
2024-06-22 09:00 pm NW 2.0 3.0 0.0 3--1009.6 -1.7 9.4 7.3----
2024-06-22 08:00 pm SW 2.0 3.0 0.0 3--1010.2 -1.9 10.2 7.5----
2024-06-22 07:00 pmWSW 3.0 3.0 0.0 3--1011.0 -2.1 10.0 7.5----
2024-06-22 06:00 pm N 1.0 1.0 0.0 3--1011.3 -2.5 11.5 7.0----
2024-06-22 05:00 pmNNW 2.0 3.0 0.0 3--1012.2 -2.6 8.6 6.8----
2024-06-22 04:00 pm NW 3.0 3.0 0.0 3--1013.1 -2.2 8.2 6.8----
2024-06-22 03:00 pm NW 3.0 4.0 0.0 3--1014.0 -1.8 8.1 7.1----
2024-06-22 02:00 pm NW 3.0 3.0 0.0 2--1014.9 -1.3 7.7 7.1----